Wetbulb
48.56 44.65 42.26 45.20 46.81 49.10 52.11 53.37 53.52 57.52 60.27 57.72 56.98 57.06 58.51 60.88 62.12 60.40 58.86 60.97 63.59 64.14 67.22 67.74 68.13 68.96 69.29 69.57 69.74 70.78 69.86 70.02 71.01 69.96 69.48 68.34 69.14 69.94 70.05 70.99 71.50 73.11 70.45 69.18
44.71 42.20 48.41 50.06 50.99 50.04 51.38 55.67 54.88 57.84 59.45 57.97 56.74 56.06 59.77 59.92 60.27 61.42 59.73 60.19 62.20 61.96 65.12 66.87 67.34 68.63 69.04 69.08 69.84 69.70 69.49 70.34 70.36 70.30 70.06 70.12 70.44 71.77 70.68 71.08 71.90 72.30 70.21 69.98
42.28 45.92 51.62 50.39 49.06 47.85 54.38 54.43 54.35 54.43 57.44 57.28 56.52 54.22 56.28 59.50 60.08 60.62 61.65 62.90 62.77 63.14 64.64 65.52 66.48 67.68 69.02 69.34 69.27 69.55 69.94 69.86 69.78 69.54 69.84 69.50 69.94 70.44 71.26 71.03 70.19 71.61 72.24 72.14
43.38 48.45 48.12 46.66 46.89 51.53 47.96 58.72 55.26 53.66 53.50 49.35 56.18 46.47 53.76 56.73 57.57 58.48 60.30 60.05 62.75 63.69 65.22 65.95 66.74 66.76 68.24 69.16 70.17 70.28 69.95 69.86 69.76 68.22 68.83 68.06 66.97 66.30 68.28 69.42 69.64 71.11 71.50 71.77
42.29 44.91 44.28 44.16 46.07 54.26 53.32 56.89 56.93 56.65 53.20 52.25 51.92 49.82 50.96 56.72 55.01 56.66 58.34 59.88 63.41 63.30 65.44 65.97 66.77 67.39 68.29 69.40 70.40 70.09 70.25 69.93 69.36 67.39 68.86 68.49 67.94 67.78 68.97 70.16 70.59 71.30 71.12 71.74
45.87 48.14 46.49 45.30 52.85 56.67 58.00 55.69 55.98 55.63 52.02 44.65 50.30 50.90 50.80 52.56 54.88 56.65 58.01 60.15 62.78 63.05 65.81 66.80 67.84 68.35 67.81 68.97 70.65 70.33 70.18 69.78 69.79 68.76 68.65 68.73 67.90 67.93 67.88 68.88 70.34 70.00 70.49 69.89
44.94 45.75 46.40 50.12 54.58 57.67 54.15 49.37 45.03 44.05 43.94 42.75 50.14 49.07 50.00 55.61 57.86 59.03 59.35 60.23 63.15 63.09 64.37 66.02 67.07 67.69 68.18 68.17 70.19 70.45 69.69 69.45 70.11 69.86 69.67 69.27 68.82 69.03 68.95 68.66 69.69 69.55 70.13 70.14
37.91 38.59 43.48 48.18 50.39 52.25 50.89 50.49 45.40 40.49 42.04 44.96 51.28 46.28 51.15 58.34 60.29 60.60 61.29 61.70 63.16 63.66 63.00 64.29 66.77 68.33 69.12 69.36 70.92 71.13 70.00 69.55 70.34 70.08 70.17 70.22 70.10 69.63 69.27 69.86 69.93 70.28 70.08 70.53
38.38 40.20 49.32 48.81 50.04 56.04 48.28 46.96 52.89 46.04 47.81 44.67 47.93 51.32 57.31 60.46 60.35 60.61 60.10 60.77 62.01 63.97 62.83 64.48 66.01 68.09 69.38 69.94 71.31 71.38 70.76 70.68 70.91 70.43 70.63 70.58 70.37 70.06 69.04 70.09 70.36 71.12 71.14 71.60
43.24 39.40 45.25 49.60 49.56 49.17 46.67 49.41 44.49 43.47 39.84 39.22 46.77 48.39 49.15 55.58 57.91 59.30 58.73 58.97 62.01 62.98 63.09 64.32 65.31 66.67 68.12 70.70 71.81 72.01 71.65 71.18 70.90 71.18 71.50 71.20 70.87 70.88 71.08 71.07 71.04 71.27 71.21 71.96
43.33 41.54 43.76 46.49 43.47 43.74 44.39 42.27 42.63 42.32 43.10 41.77 42.26 45.83 55.83 55.97 58.63 58.01 58.74 59.57 61.62 62.96 62.93 64.39 65.64 64.91 67.87 69.40 71.79 71.38 71.21 70.46 70.43 71.55 71.34 71.09 71.06 71.18 71.53 71.06 70.76 71.80 71.99 72.46
46.17 40.36 38.09 42.79 47.74 49.26 45.52 44.50 42.27 38.75 38.38 42.65 44.32 43.46 59.59 59.08 60.18 60.48 60.34 61.49 62.00 62.35 62.68 64.69 64.69 66.19 67.67 68.32 71.11 70.99 71.33 70.71 70.91 71.74 70.83 71.09 71.14 70.97 71.06 71.44 72.08 71.84 71.79 72.69
46.29 39.30 35.35 39.35 44.21 47.55 45.37 46.16 42.04 40.50 37.51 36.63 38.12 41.97 59.42 58.17 56.67 59.30 58.08 59.26 61.10 62.84 63.31 63.57 64.52 65.29 67.69 69.58 70.30 70.61 70.78 70.96 71.27 71.28 71.06 70.52 71.14 71.59 71.01 70.87 71.46 71.82 71.47 72.09
51.89 39.89 38.92 35.38 40.68 43.81 43.91 48.02 50.48 40.47 35.54 36.60 38.97 46.86 53.91 56.63 57.60 57.87 57.71 60.29 61.96 62.49 63.76 65.03 64.39 66.15 68.19 69.95 69.74 68.83 69.30 69.41 69.71 71.37 71.03 70.48 70.63 71.23 71.32 70.86 70.76 71.39 72.03 71.12
46.98 40.68 44.11 43.46 48.02 49.16 50.50 50.77 51.32 48.70 47.02 38.49 41.02 48.49 52.26 55.02 56.39 56.04 58.82 59.73 60.68 63.35 64.35 63.84 64.37 65.34 66.60 68.51 68.94 68.72 68.58 68.22 69.10 68.95 69.42 68.83 69.82 69.97 70.30 70.18 70.10 71.38 71.45 71.73
45.57 41.67 44.52 44.38 49.86 49.93 48.72 50.25 50.89 52.43 52.82 52.88 52.24 51.40 55.89 57.26 57.54 56.41 58.55 58.76 60.03 62.44 65.36 64.12 65.26 65.57 66.67 68.19 68.29 68.36 67.98 67.91 68.94 68.07 68.38 68.22 68.38 67.70 68.73 69.78 69.50 70.37 70.27 70.70
43.50 43.34 42.28 38.37 47.51 46.99 43.89 46.68 49.38 51.83 53.74 52.26 46.49 49.25 54.92 53.67 53.73 54.53 56.17 60.68 60.83 63.07 65.09 64.93 63.93 64.52 65.05 65.72 68.73 68.47 68.41 68.25 68.34 68.54 69.08 68.65 68.74 68.04 68.43 70.06 69.81 69.11 69.50 69.91
42.10 41.32 41.81 38.01 41.50 37.10 45.26 52.77 51.09 51.77 54.51 54.16 53.98 53.73 53.68 54.21 56.84 60.80 61.47 59.85 58.78 60.58 61.92 64.35 64.94 65.22 66.53 67.86 68.49 68.45 68.13 67.98 67.98 67.86 68.29 68.47 67.71 67.37 68.02 69.53 69.51 68.81 69.37 69.24
44.29 41.52 39.31 36.88 36.07 42.88 47.03 50.16 49.04 46.92 48.88 55.66 55.69 59.47 59.70 59.38 59.65 59.23 60.24 59.87 59.04 59.00 59.39 60.99 64.04 65.37 66.84 67.07 68.31 68.00 67.48 67.57 67.30 66.94 67.10 67.71 67.46 67.01 67.46 67.77 67.91 68.25 67.63 67.29
44.91 43.64 40.85 38.95 34.49 33.80 45.17 51.11 53.46 53.12 45.66 55.73 58.28 58.13 58.30 57.08 51.47 56.35 58.37 58.54 58.19 58.68 59.20 59.60 60.95 62.64 64.29 64.92 65.90 65.19 65.12 66.03 66.08 67.26 67.42 67.95 67.51 66.51 65.97 66.76 67.97 66.62 66.05 63.45
39.84 39.27 36.45 38.15 37.30 41.50 49.22 52.88 53.64 43.05 45.64 55.60 55.55 56.80 58.21 55.12 54.61 58.75 56.95 55.87 57.48 57.62 57.66 59.01 59.40 59.12 59.93 61.49 62.77 61.56 62.14 61.86 63.33 66.10 66.69 66.78 66.69 66.13 66.31 66.19 64.98 63.54 61.29 59.02
38.00 37.42 36.97 40.30 36.68 34.27 51.19 51.69 45.80 49.18 52.99 54.73 54.26 55.12 58.24 58.34 58.33 57.40 56.17 55.00 56.13 55.62 56.71 57.94 57.37 57.76 58.98 59.85 59.91 59.26 59.16 60.39 61.48 62.70 64.44 65.04 65.03 65.90 66.04 64.97 62.82 62.02 60.73 57.85
37.38 42.00 41.46 43.19 43.12 48.69 51.80 51.43 54.31 55.10 54.43 56.24 56.59 58.27 59.45 58.41 57.37 56.61 55.50 53.33 55.76 56.33 56.43 57.16 56.54 56.86 57.34 58.49 59.52 58.40 58.84 60.29 60.77 61.09 58.28 55.89 54.01 54.05 55.76 62.61 63.43 62.94 61.14 57.74
44.61 46.93 42.96 44.41 47.09 51.29 51.80 52.03 54.07 53.38 53.13 57.59 59.87 60.30 59.57 57.83 57.45 56.03 55.42 54.76 54.94 55.42 55.04 55.38 54.96 53.97 54.32 56.10 57.35 57.73 58.29 59.18 59.93 59.52 57.77 53.70 52.21 49.87 49.49 47.93 48.39 49.17 49.78 53.63
45.51 47.27 44.11 44.17 48.83 51.27 51.80 52.02 52.06 52.97 55.03 59.75 60.84 60.21 59.00 57.92 56.29 56.01 55.28 54.80 54.39 53.88 53.96 54.35 53.60 53.23 53.11 54.07 54.94 56.93 58.20 57.67 56.99 58.04 58.13 53.37 50.37 47.81 46.39 45.14 45.49 43.24 42.24 43.61
46.67 44.01 43.37 42.76 48.36 48.09 48.61 50.56 53.58 52.39 52.97 59.52 59.50 59.20 59.50 58.10 56.25 55.32 54.51 55.33 53.65 52.88 52.64 52.70 51.97 52.17 52.61 52.54 52.49 53.53 54.80 55.36 54.73 54.13 54.84 54.65 50.41 48.35 45.81 44.80 45.70 43.42 42.20 41.66
MSLP
1008.99 1009.59 1009.44 1009.50 1010.11 1010.40 1010.91 1011.72 1012.68 1013.12 1013.21 1013.43 1013.26 1013.61 1013.84 1013.43 1012.97 1012.52 1012.50 1012.58 1013.06 1013.60 1014.52 1015.00 1015.39 1016.09 1016.77 1017.07 1017.60 1017.78 1018.41 1018.55 1018.69 1019.24 1019.60 1019.82 1020.24 1020.32 1020.55 1020.30 1020.12 1020.33 1020.48 1020.66
1009.53 1009.41 1008.95 1009.16 1009.48 1010.23 1010.49 1011.43 1012.47 1013.60 1014.00 1014.25 1013.62 1013.65 1013.85 1013.77 1013.45 1013.05 1012.96 1012.64 1012.91 1013.79 1014.60 1015.02 1015.39 1015.95 1016.46 1016.97 1017.52 1017.84 1018.34 1018.70 1018.75 1019.19 1019.68 1019.88 1019.88 1020.21 1020.14 1020.12 1020.20 1020.21 1020.53 1020.88
1009.38 1008.65 1008.37 1008.87 1009.06 1009.88 1010.74 1011.25 1011.99 1014.22 1014.61 1014.54 1014.44 1014.24 1013.68 1013.37 1013.37 1012.96 1012.95 1012.86 1012.50 1013.07 1014.06 1014.80 1015.30 1015.80 1016.36 1016.87 1017.23 1017.74 1018.20 1018.70 1018.75 1019.20 1019.71 1020.06 1020.14 1020.18 1020.71 1020.72 1020.56 1020.39 1020.59 1020.60
1008.87 1007.94 1008.07 1008.04 1008.32 1009.22 1010.60 1010.92 1011.51 1013.35 1014.70 1014.64 1014.70 1014.51 1013.78 1013.08 1013.12 1012.75 1012.74 1012.62 1012.69 1012.96 1013.50 1014.12 1014.91 1015.61 1016.10 1016.49 1017.04 1017.52 1017.97 1018.58 1018.86 1019.18 1019.69 1020.20 1020.40 1020.85 1020.92 1020.80 1020.66 1020.57 1020.61 1020.64
1008.08 1007.50 1007.50 1007.44 1007.23 1008.52 1010.82 1011.03 1012.40 1013.47 1014.68 1014.78 1014.80 1014.73 1012.94 1012.43 1012.37 1012.01 1012.07 1012.24 1012.39 1012.66 1013.00 1013.74 1014.36 1014.81 1015.70 1016.15 1016.76 1017.44 1017.82 1018.36 1018.76 1019.13 1019.54 1020.14 1020.59 1020.82 1020.94 1020.82 1020.76 1020.82 1020.75 1020.65
1007.54 1006.59 1006.57 1006.33 1006.65 1007.42 1010.28 1011.80 1013.09 1014.19 1014.70 1015.14 1014.23 1013.90 1011.84 1011.62 1010.76 1011.16 1011.56 1011.74 1011.90 1012.22 1012.88 1013.42 1013.95 1014.52 1015.44 1016.20 1016.69 1017.27 1017.94 1018.34 1018.65 1018.95 1019.38 1019.77 1020.32 1020.68 1021.06 1021.05 1021.04 1020.96 1020.96 1020.90
1007.52 1006.42 1005.79 1006.13 1008.16 1009.48 1009.31 1010.68 1014.25 1014.47 1015.10 1014.42 1013.67 1013.42 1011.07 1010.31 1010.36 1010.08 1010.35 1011.07 1011.46 1011.98 1012.58 1013.40 1013.92 1014.66 1015.20 1015.89 1016.36 1016.97 1017.68 1018.19 1018.47 1018.82 1019.19 1019.50 1019.80 1020.26 1020.66 1020.62 1020.79 1020.92 1020.97 1020.93
1008.61 1007.13 1005.73 1005.17 1006.45 1008.23 1008.90 1009.26 1011.50 1013.42 1014.14 1014.32 1014.00 1012.75 1010.22 1009.41 1008.96 1008.50 1008.62 1010.02 1011.03 1011.58 1012.18 1012.69 1013.44 1014.04 1014.71 1015.27 1015.84 1016.44 1017.09 1017.75 1018.15 1018.57 1018.97 1019.26 1019.59 1020.08 1020.12 1020.20 1020.41 1020.51 1020.56 1020.51
1008.62 1007.35 1005.88 1005.38 1005.35 1006.73 1008.24 1008.66 1008.89 1011.68 1013.26 1013.64 1013.64 1012.49 1009.90 1008.95 1008.16 1007.44 1008.78 1009.36 1010.44 1011.30 1011.72 1012.43 1013.10 1013.70 1014.27 1014.76 1015.42 1015.90 1016.77 1017.32 1017.85 1018.07 1018.54 1019.09 1019.36 1019.74 1020.04 1020.17 1020.12 1020.16 1020.13 1020.10
1008.87 1008.22 1006.66 1005.63 1005.19 1005.37 1006.10 1007.24 1009.21 1010.92 1012.40 1012.91 1013.30 1012.74 1011.35 1008.46 1008.59 1008.37 1008.82 1009.56 1009.85 1010.85 1011.52 1012.10 1012.89 1013.44 1013.84 1014.30 1015.11 1015.72 1016.30 1016.81 1017.25 1017.77 1018.13 1018.62 1019.10 1019.38 1019.58 1019.86 1020.00 1020.06 1019.87 1019.66
1009.14 1009.02 1007.88 1006.70 1006.39 1006.02 1006.28 1006.88 1008.21 1009.51 1010.26 1011.17 1011.81 1010.80 1008.40 1007.84 1008.32 1007.77 1008.03 1008.97 1009.63 1010.30 1011.01 1011.66 1012.54 1013.04 1013.42 1014.12 1014.94 1015.70 1016.20 1016.92 1017.42 1017.53 1017.86 1018.19 1018.61 1018.97 1019.29 1019.58 1019.83 1019.90 1019.68 1019.60
1009.38 1009.86 1009.62 1008.25 1006.96 1005.94 1005.86 1006.69 1007.90 1009.53 1010.05 1010.18 1010.04 1009.08 1007.42 1007.63 1008.05 1008.47 1009.36 1009.66 1009.72 1010.19 1010.98 1011.41 1012.02 1012.69 1013.42 1013.94 1014.70 1015.32 1015.97 1016.56 1017.04 1017.40 1017.62 1017.87 1018.26 1018.60 1018.91 1019.10 1019.28 1019.54 1019.54 1019.26
1009.80 1010.56 1010.54 1009.40 1008.03 1007.02 1007.55 1007.78 1008.33 1008.80 1009.28 1009.92 1010.19 1009.39 1008.48 1008.60 1009.68 1010.16 1010.79 1010.66 1010.59 1010.52 1010.66 1011.20 1012.27 1012.83 1013.18 1013.96 1014.60 1015.43 1016.01 1016.53 1016.79 1017.40 1017.61 1017.84 1018.00 1018.45 1018.73 1018.90 1018.93 1019.10 1019.36 1019.42
1009.89 1011.25 1011.57 1011.41 1010.56 1009.76 1009.11 1008.98 1008.87 1009.05 1009.86 1009.82 1009.77 1009.78 1009.55 1009.27 1010.50 1011.43 1011.16 1011.06 1010.90 1010.66 1010.75 1011.14 1012.18 1012.56 1013.16 1013.53 1014.44 1015.55 1016.07 1016.54 1016.65 1017.17 1017.54 1017.80 1017.84 1018.05 1018.42 1018.68 1018.95 1018.99 1019.02 1019.47
1011.05 1011.86 1011.38 1011.07 1010.51 1010.13 1010.18 1010.02 1010.07 1009.96 1010.15 1009.91 1009.58 1010.16 1010.13 1010.77 1011.29 1011.96 1012.17 1011.96 1010.87 1011.29 1011.14 1011.42 1012.02 1012.90 1013.20 1013.51 1014.35 1015.56 1015.96 1016.66 1016.98 1017.29 1017.66 1017.77 1017.67 1017.94 1018.40 1018.76 1019.04 1018.86 1019.16 1019.24
1012.25 1012.48 1012.22 1011.71 1011.11 1010.97 1011.04 1010.94 1010.95 1010.69 1010.56 1010.61 1010.49 1011.58 1012.07 1012.08 1012.13 1012.34 1012.68 1012.48 1011.88 1011.34 1011.84 1012.62 1012.64 1012.88 1013.12 1013.50 1014.08 1014.95 1016.28 1016.78 1017.27 1017.82 1017.70 1018.01 1018.14 1018.18 1018.25 1018.90 1018.99 1019.18 1019.21 1019.55
1013.15 1013.55 1013.79 1013.20 1012.17 1012.16 1012.42 1012.92 1012.45 1012.12 1011.66 1011.44 1012.04 1012.92 1012.74 1013.03 1013.35 1013.59 1013.72 1013.56 1012.82 1011.48 1012.32 1013.63 1014.64 1013.52 1013.68 1013.74 1013.83 1014.74 1015.95 1016.88 1017.31 1017.52 1017.68 1017.96 1017.98 1018.22 1018.28 1018.72 1018.95 1018.94 1019.39 1019.66
1013.87 1014.24 1014.56 1014.55 1013.40 1013.62 1014.23 1013.42 1012.83 1012.89 1012.76 1012.60 1012.75 1013.20 1013.30 1013.59 1014.03 1014.16 1013.96 1013.48 1013.84 1012.90 1013.62 1013.48 1013.53 1014.68 1014.50 1014.68 1014.44 1015.20 1016.31 1016.42 1016.48 1017.04 1017.58 1017.75 1018.01 1018.25 1018.26 1018.56 1018.78 1019.10 1019.41 1019.81
1014.28 1014.81 1015.52 1015.34 1015.01 1015.01 1014.34 1013.61 1013.43 1013.57 1013.84 1013.51 1013.45 1013.53 1013.50 1013.57 1013.69 1014.40 1014.92 1014.70 1014.54 1014.72 1014.16 1015.37 1014.71 1015.14 1015.33 1015.48 1015.97 1016.08 1016.40 1016.27 1016.65 1017.09 1017.58 1017.94 1018.08 1018.30 1018.32 1018.41 1018.63 1019.01 1019.57 1019.89
1015.04 1014.63 1015.77 1016.34 1016.10 1015.26 1014.19 1013.36 1012.99 1013.50 1014.14 1013.82 1013.49 1013.65 1013.62 1013.95 1014.76 1015.31 1015.61 1015.59 1015.44 1016.03 1015.72 1015.94 1015.27 1015.38 1015.03 1015.58 1016.10 1016.52 1016.89 1016.85 1017.31 1017.68 1017.75 1018.04 1018.25 1018.37 1018.58 1018.74 1018.99 1019.37 1019.94 1020.46
1015.94 1016.51 1017.09 1017.00 1016.42 1015.39 1014.04 1013.27 1012.59 1013.53 1014.08 1014.10 1013.50 1013.73 1014.24 1014.58 1014.94 1015.32 1016.24 1016.30 1016.22 1016.39 1016.18 1016.22 1016.08 1017.18 1016.62 1016.27 1016.47 1017.07 1016.23 1016.43 1017.46 1017.63 1018.16 1018.18 1018.55 1018.88 1019.08 1019.21 1019.47 1019.97 1020.55 1021.03
1016.64 1016.99 1017.37 1017.21 1016.78 1015.62 1013.92 1013.18 1013.02 1012.89 1012.84 1013.37 1013.44 1013.85 1014.49 1014.93 1015.30 1015.95 1016.43 1017.25 1017.39 1017.17 1017.40 1017.31 1017.32 1017.67 1017.41 1017.25 1017.39 1017.88 1017.96 1018.15 1018.58 1018.24 1018.15 1018.50 1019.14 1019.14 1019.59 1019.40 1019.90 1020.64 1021.20 1021.61
1016.56 1016.27 1016.29 1016.04 1015.85 1014.98 1013.81 1013.22 1012.84 1012.58 1012.95 1013.05 1012.91 1013.75 1014.78 1015.35 1016.09 1016.36 1016.95 1017.52 1017.61 1017.74 1017.91 1018.40 1018.37 1018.15 1018.01 1017.81 1018.08 1018.74 1018.94 1018.75 1018.96 1018.97 1019.16 1019.62 1020.02 1020.06 1019.93 1020.20 1020.69 1021.20 1021.93 1022.25
1015.62 1015.57 1015.90 1015.78 1014.82 1014.44 1014.00 1013.42 1013.18 1012.52 1012.64 1012.48 1013.02 1013.80 1014.53 1015.56 1015.89 1016.92 1016.92 1017.70 1017.97 1018.09 1018.20 1018.28 1018.32 1018.58 1018.62 1018.76 1019.03 1019.48 1019.42 1019.38 1019.48 1019.77 1020.08 1020.72 1021.06 1021.30 1021.37 1021.39 1021.70 1022.11 1022.41 1022.75
1014.59 1015.07 1015.27 1015.37 1014.66 1014.30 1013.77 1012.99 1012.86 1012.59 1012.81 1013.17 1013.64 1014.18 1015.01 1015.63 1016.49 1016.98 1017.33 1017.59 1018.25 1018.55 1018.55 1018.79 1019.04 1019.23 1019.71 1019.74 1020.01 1019.93 1019.78 1019.94 1020.18 1020.42 1020.69 1021.21 1021.70 1022.04 1022.64 1022.84 1022.98 1023.17 1023.54 1023.49
1013.62 1013.83 1014.30 1014.22 1013.54 1013.55 1013.47 1012.89 1012.65 1013.09 1013.60 1013.81 1014.17 1014.84 1015.49 1015.73 1016.43 1016.79 1017.22 1017.55 1018.16 1018.56 1018.86 1019.42 1019.81 1019.93 1020.24 1020.44 1020.44 1020.20 1020.26 1020.34 1020.74 1020.94 1021.34 1021.58 1021.76 1022.25 1022.89 1023.02 1023.83 1023.81 1024.01 1023.62
Wind_Speed
4 4 6 8 7 6 5 8 10 4 3 1 3 3 4 4 3 9 8 8 18 19 19 17 16 14 12 11 7 8 8 5 4 3 4 4 4 2 2 3 5 7 5 3
6 4 10 7 8 7 9 9 8 6 2 4 3 5 5 3 3 0 3 11 16 12 17 16 15 14 14 13 9 8 8 6 5 4 3 2 3 2 2 2 2 3 6 5
7 10 10 9 9 10 2 9 13 1 3 4 4 4 4 2 3 3 4 3 12 22 21 17 15 14 12 12 12 10 9 7 5 6 4 3 3 4 3 1 1 2 3 4
7 13 12 8 11 6 3 5 14 16 9 4 2 3 4 12 10 3 5 4 6 18 19 18 16 14 14 12 11 11 10 8 6 6 6 3 3 4 3 4 3 3 3 3
10 7 4 7 10 9 6 8 7 16 6 2 6 1 5 8 13 15 8 6 6 17 22 20 18 17 14 13 12 11 9 8 6 7 7 5 3 1 1 1 4 3 3 4
9 6 5 7 5 14 21 16 13 3 1 3 6 4 4 8 22 15 5 7 5 16 19 18 17 15 13 12 11 10 8 8 6 7 7 7 8 5 3 3 3 3 3 2
9 6 5 7 16 7 14 10 4 3 2 3 5 3 6 7 6 15 15 13 11 8 18 18 17 14 14 15 13 11 9 9 9 7 6 6 7 6 7 6 4 4 2 2
2 10 2 3 10 14 8 6 8 6 4 2 1 5 6 3 12 22 21 18 13 10 11 16 20 16 15 16 15 14 12 10 12 10 8 6 5 4 4 5 4 4 4 4
2 6 5 2 4 14 6 3 9 8 3 3 3 8 11 1 6 9 14 19 17 12 10 13 15 16 17 17 16 15 13 10 9 10 8 7 6 6 6 6 5 4 4 4
1 4 4 7 1 4 10 7 4 2 6 4 4 1 11 10 2 7 12 16 19 10 9 8 12 16 15 16 14 15 14 13 12 10 10 8 7 7 6 5 6 6 5 5
3 3 8 4 2 7 1 1 3 4 6 6 5 8 13 19 12 15 17 18 18 15 11 12 11 8 13 13 14 13 13 11 10 9 9 9 7 7 6 5 5 5 4 6
3 3 3 7 8 9 5 8 6 6 8 2 4 6 6 7 10 8 6 5 12 11 7 11 10 13 10 14 15 15 13 12 11 9 7 8 7 7 6 6 6 6 6 3
4 4 5 12 10 10 7 5 3 1 4 3 4 6 3 2 6 13 7 5 0 5 7 8 11 10 11 11 11 10 11 10 8 7 8 6 7 7 7 6 5 4 5 5
5 2 6 6 8 4 7 11 9 3 3 3 6 3 5 8 2 7 9 2 3 3 8 9 9 13 13 15 11 7 7 4 5 7 8 7 7 7 6 4 3 5 6 5
5 3 4 6 4 8 12 12 16 7 5 6 4 5 4 5 5 4 4 4 11 4 6 9 13 12 12 13 14 11 9 7 3 2 6 7 6 5 5 5 3 3 4 5
5 2 5 3 6 8 12 19 12 9 12 6 11 8 5 4 6 7 6 7 8 6 3 5 15 14 16 15 13 11 7 7 6 4 4 4 2 3 2 1 2 5 5 3
3 3 4 2 4 3 8 8 10 5 10 2 4 1 4 6 8 5 4 5 5 4 8 4 5 6 7 9 14 13 10 9 8 6 5 5 5 5 4 3 4 4 1 5
2 2 2 3 4 3 6 4 7 5 8 10 11 8 7 5 4 6 7 6 11 10 6 9 4 5 5 4 6 9 9 8 6 5 4 3 4 4 5 5 4 4 2 5
3 4 3 3 2 3 5 2 1 4 5 5 6 9 10 9 8 9 9 8 10 8 9 3 7 9 8 7 4 7 5 7 7 4 5 5 5 4 4 4 5 3 2 3
2 7 5 3 3 2 7 3 5 2 3 7 2 5 5 1 3 2 5 6 9 6 5 5 8 8 9 7 8 6 4 5 5 4 3 5 5 5 5 5 5 4 4 5
4 4 4 2 1 4 6 8 2 5 6 4 2 3 2 3 3 7 7 6 7 6 7 7 9 6 7 8 8 10 6 7 1 3 4 5 5 5 5 4 4 5 6 7
3 4 2 2 4 1 4 5 5 5 4 7 5 2 8 11 12 10 7 7 7 7 6 6 7 5 6 7 8 8 7 5 4 4 7 5 3 4 3 7 5 5 6 7
2 6 6 5 7 6 7 4 1 5 5 5 5 6 7 10 8 10 7 3 7 9 8 5 7 7 5 6 8 7 3 5 7 8 9 7 7 6 6 5 5 5 3 4
3 3 3 3 3 4 5 4 4 4 6 2 3 7 5 7 8 6 7 6 4 4 5 4 7 7 6 5 5 5 4 4 5 8 8 6 7 7 8 6 5 4 3 3
5 6 6 3 2 3 4 5 5 9 10 8 7 7 8 8 6 5 6 7 6 5 5 5 6 6 5 4 5 3 4 5 5 5 7 6 5 6 6 6 5 4 3 3
6 8 6 7 8 5 4 5 7 9 7 7 9 6 5 7 6 5 5 5 6 6 5 6 6 6 5 4 3 3 2 3 4 4 3 4 5 4 4 7 4 9 6 8
Wind_Direction
261 77 201 207 192 202 219 212 188 144 222 205 139 283 156 44 281 183 179 151 152 150 160 162 159 152 157 158 159 151 138 183 130 91 100 110 159 136 171 199 155 141 148 141
9 247 237 208 234 247 250 149 82 52 211 328 161 240 285 154 255 176 40 164 156 136 154 159 158 152 158 163 165 154 144 177 135 117 108 117 139 142 167 162 174 173 148 166
183 235 235 240 255 236 55 141 128 254 196 1 85 303 268 202 204 207 244 223 176 151 159 161 163 157 151 162 168 161 154 169 143 123 105 63 66 54 78 61 179 246 196 172
225 250 239 234 243 150 152 216 145 174 168 222 167 240 207 250 262 231 237 195 191 165 162 160 166 162 163 164 164 160 159 160 153 148 114 123 139 146 184 175 194 205 200 155
250 262 249 242 238 135 164 67 142 155 177 140 211 237 255 197 244 249 221 209 207 172 166 167 173 168 171 158 165 166 159 154 160 168 151 142 145 153 203 161 186 189 208 176
235 228 177 220 320 128 138 94 50 50 90 238 196 235 238 186 213 226 203 201 218 179 169 170 175 167 164 160 161 160 165 166 165 176 165 173 169 174 201 210 202 204 214 199
332 290 267 127 78 64 113 99 73 321 251 231 172 213 252 230 201 217 221 191 188 176 164 170 169 177 157 169 173 170 171 177 168 182 180 193 196 195 207 198 185 181 213 223
254 329 151 254 148 165 186 156 145 209 198 100 68 246 258 153 224 210 214 181 180 177 166 163 178 175 167 174 178 176 173 181 175 173 186 180 189 192 196 188 187 197 208 213
241 268 327 267 226 141 234 201 152 106 20 104 210 304 291 7 354 171 181 170 177 180 166 165 172 174 178 180 180 175 176 179 180 175 169 177 186 186 208 206 194 208 228 212
267 288 269 286 312 257 147 185 109 17 149 159 148 226 264 298 107 150 161 176 175 176 165 168 167 178 177 179 179 174 173 185 182 178 175 177 181 195 192 203 206 219 233 209
30 110 288 16 33 228 344 309 71 129 144 150 141 240 225 227 191 168 169 170 176 178 182 172 179 168 177 168 172 177 171 174 190 184 177 171 174 187 190 175 187 199 193 189
307 131 310 256 286 250 176 188 143 129 273 187 176 261 176 226 147 143 120 161 158 155 182 192 167 158 167 167 170 172 172 180 186 191 177 176 179 181 188 199 195 192 198 185
324 357 13 346 347 5 41 345 355 89 84 217 143 262 349 358 36 67 39 34 88 181 193 184 168 162 151 151 153 163 168 177 168 178 186 188 175 181 193 202 218 208 189 199
73 119 143 187 234 225 333 4 6 121 111 223 213 204 270 219 42 80 38 12 76 225 186 157 135 166 158 153 142 150 144 146 146 173 187 180 180 185 197 202 219 222 203 196
85 269 207 205 329 32 58 29 23 25 291 162 247 176 217 40 55 60 36 321 58 82 127 173 158 169 161 152 147 159 123 101 100 174 193 198 160 129 138 116 67 42 221 203
15 290 327 36 14 52 53 34 24 15 359 44 85 67 35 43 26 3 9 338 34 65 100 189 168 158 152 146 138 121 119 130 111 207 214 180 181 215 122 109 108 42 39 338
70 44 24 260 331 75 42 349 13 49 24 38 71 353 85 41 53 26 25 64 50 135 89 68 310 126 127 142 142 137 145 172 165 183 186 200 197 204 186 185 141 101 359 32
95 9 123 228 352 118 230 303 30 51 39 66 84 102 113 126 130 83 37 47 51 61 53 75 44 66 75 123 89 112 152 156 157 129 163 175 193 195 188 166 120 105 149 103
233 120 60 111 90 101 332 336 31 47 325 342 139 124 121 120 91 58 60 54 68 59 60 84 126 97 80 68 94 126 145 130 117 147 177 178 161 145 137 138 141 95 108 119
21 75 111 59 82 178 216 233 150 138 30 276 136 157 154 273 70 162 105 89 82 68 77 57 51 90 116 137 116 90 80 113 134 148 210 156 146 135 128 129 126 103 105 92
358 20 100 86 89 289 252 270 231 103 189 259 183 174 169 160 192 108 97 69 92 88 70 61 63 49 55 60 99 105 97 76 54 135 189 125 128 128 126 110 95 109 107 104
189 120 135 100 43 210 8 294 192 208 143 186 180 91 110 116 118 119 109 115 114 105 94 96 93 72 68 72 82 85 81 83 40 71 82 79 86 106 126 117 102 105 121 123
318 178 180 155 197 224 284 359 121 138 167 225 157 121 121 125 127 130 124 121 127 130 125 116 112 104 75 79 94 100 90 79 81 66 65 65 64 50 53 82 119 113 112 125
241 151 109 100 260 222 225 155 173 79 46 69 80 115 116 122 110 101 108 126 95 90 107 101 92 76 76 77 81 110 125 130 114 104 96 62 57 60 51 59 54 76 82 139
197 135 149 271 62 95 300 96 94 63 57 87 72 106 121 107 103 130 131 113 118 110 91 94 96 95 90 87 103 108 108 107 96 104 111 108 108 92 89 55 43 71 42 344
185 166 159 208 188 150 209 136 107 87 78 122 111 100 115 125 139 132 110 105 114 115 107 105 109 111 118 113 108 93 115 112 115 124 141 143 130 133 126 124 112 40 27 4